Weather in Lesnoy Hlebichin

Ukraine / Ivano-Frankovsk District     48°41′16″N   24°55′23″E
temp.,
°C
wind,
m/s
gust,
m/s
humid.,
%
clouds,
%
prec.,
mm/h
press.,
hPa
HPBL,
m
7 march, sun
sun723:00−4wsw47780 0.0 1031155
02:00−4sw46730 0.0 1030131
05:00−5sw37710 0.0 1028126
08:00−4sw47730 0.0 1026170
11:00+1w47600 0.0 1024832
14:00+4wsw585332 0.0 10211084
17:00+3wsw356117 0.0 1019228
20:00−1wsw346513 0.0 101969
8 march, mon
mon823:00−3sw35730 0.0 1019112
02:00−2wsw37740 0.0 1017138
05:00−3w347735 0.0 1016104
08:00−2wsw357436 0.0 1016199
11:00+2nw586475 0.0 10161119
14:00+1nnw798587 0.3 1016747
17:00+1nnw5862100 0.1 10171399
20:00−2wnw498084 0.1 1020244
9 march, tue
tue923:00−3wnw37845 0.0 1022178
02:00−3wnw37835 0.0 1022213
05:00−4wnw37840 0.0 1022222
08:00−3wnw357932 0.0 1023342
11:000nw336294 0.1 10231022
14:00+1nnw225397 0.1 10221293
17:00+1ne2257100 0.0 1021954
20:00−1ese2368100 0.0 102271
10 march, wed
wed1023:00−2ese2573100 0.0 1022185
02:00−2ese3775100 0.0 1022315
05:00−2ese2576100 0.0 1020275
08:00−1ese1272100 0.0 1021362
11:00+1nne116299 0.0 1021773
14:00+2n336099 0.0 10211024
17:00+1nne346594 0.1 1021956
20:00−2n238383 0.2 102360
11 march, thu
thu1123:00−3wnw128331 0.0 102425
02:00−3wnw228116 0.0 102536
05:00−3w12790 0.0 102527
08:00−2ssw11720 0.0 1025127
11:00+2sse34520 0.0 1024814
14:00+4se344936 0.0 1022852
17:00+3se4760100 0.0 1021244
20:00+1se4872100 0.0 1020183